This is the latest recevied weather packets stored in our database for station/object KC5AV. If no packets are shown the sender has not sent any weather packets the latest 10 day(s).
| Time | Temp. | Humidity | Pressure | Rain* | Wind** | Luminosity | Snow |
|---|---|---|---|---|---|---|---|
| 1777398542 | 28.89° C | 71% | 1015.6 hPa | 0 mm | - | 554 W/m² | - |
| 1777398239 | 28.89° C | 72% | 1015.7 hPa | 0 mm | - | 453 W/m² | - |
| 1777397936 | 28.89° C | 73% | 1015.7 hPa | 0 mm | - | 903 W/m² | - |
| 1777397631 | 27.78° C | 75% | 1015.7 hPa | 0 mm | - | 463 W/m² | - |
| 1777397328 | 27.78° C | 77% | 1015.9 hPa | 0 mm | - | 379 W/m² | - |
| 1777397024 | 28.33° C | 74% | 1015.7 hPa | 0 mm | - | 306 W/m² | - |
| 1777396721 | 27.78° C | 74% | 1015.9 hPa | 0 mm | - | 390 W/m² | - |
| 1777396418 | 27.78° C | 75% | 1015.9 hPa | 0 mm | - | 405 W/m² | - |
| 1777396115 | 27.78° C | 74% | 1016.1 hPa | 0 mm | - | 323 W/m² | - |
| 1777395811 | 27.78° C | 75% | 1016 hPa | 0 mm | - | 391 W/m² | - |
| 1777395506 | 27.22° C | 78% | 1016 hPa | 0 mm | - | 357 W/m² | - |
| 1777395203 | 27.22° C | 77% | 1015.8 hPa | 0 mm | - | 259 W/m² | - |
| 1777394901 | 26.67° C | 79% | 1015.6 hPa | 0 mm | - | 263 W/m² | - |
| 1777394596 | 27.22° C | 78% | 1015.7 hPa | 0 mm | - | 206 W/m² | - |
| 1777394293 | 26.67° C | 79% | 1015.7 hPa | 0 mm | - | 238 W/m² | - |
| 1777393989 | 26.67° C | 80% | 1015.3 hPa | 0 mm | - | 198 W/m² | - |
| 1777393689 | 26.67° C | 79% | 1015 hPa | 0 mm | - | 165 W/m² | - |
| 1777393384 | 26.67° C | 78% | 1015.4 hPa | 0 mm | - | 110 W/m² | - |
| 1777393081 | 26.67° C | 79% | 1015.3 hPa | 0 mm | - | 143 W/m² | - |
| 1777392776 | 26.67° C | 79% | 1015.1 hPa | 0 mm | - | 143 W/m² | - |
| 1777392473 | 26.67° C | 78% | 1015.3 hPa | 0 mm | - | 150 W/m² | - |
| 1777392169 | 26.67° C | 78% | 1015.4 hPa | 0 mm | - | 181 W/m² | - |
| 1777391864 | 27.22° C | 78% | 1015.6 hPa | 0 mm | - | 163 W/m² | - |
| 1777391559 | 27.22° C | 78% | 1015.4 hPa | 0 mm | - | 233 W/m² | - |
| 1777391256 | 27.22° C | 77% | 1015.3 hPa | 0 mm | - | 247 W/m² | - |
* Rain latest hour (hover to see other rain measurements)
** Current wind speed in m/s (hover to see current wind gust speed)